Fort Indiantown Gap, PA

1:59 AM EST on November 17, 2019 (GMT -0500)
Muir Army Air Field

Weather History for KMUI - August, 2019

Change the Weather History Date:

Wednesday, August 21, 2019

  Actual Average Record
Temperature  
Mean Temperature 79 °F -  
Max Temperature 83 °F 80 °F 89 °F (2003)
Min Temperature 69 °F 65 °F 48 °F (2008)
Cooling Degree Days 14    
Growing Degree Days 29 (Base 50)    
Moisture  
Dew Point 70 °F    
Average Humidity 85    
Maximum Humidity 96    
Minimum Humidity 54    
Precipitation  
Precipitation 0.28 in - - ()
Sea Level Pressure  
Sea Level Pressure 29.95 in    
Wind  
Wind Speed 1 mph (SSW)    
Max Wind Speed 20 mph    
Max Gust Speed 28 mph    
Visibility 10 miles    
Events Rain , Thunderstorm    
Averages and records for this station are not official NWS values.
T = Trace of Precipitation, MM = Missing Value Source: NWS Daily Summary

Daily Weather History Graph

Daily Weather History Graph

Search for Another Location

Airport or City:

Astronomy

Aug. 21, 2019 Rise Set
Actual Time 6:22 AM EDT 7:55 PM EDT
Civil Twilight 5:53 AM EDT 8:24 PM EDT
Nautical Twilight 5:19 AM EDT 8:58 PM EDT
Astronomical Twilight 4:42 AM EDT 9:35 PM EDT
Moon 11:10 PM EDT (8/21) 11:57 AM EDT (8/21)
Length of Visible Light 14h 30m
Length of Day
13h 32m
Waning Gibbous, 69% of the Moon is Illuminated
Aug 21
Waning Gibbous
Aug 23
Last Quarter
Aug 30
New
Sep 5
First Quarter
Sep 14
Full

Hourly Weather History & Observations

Time (EDT) Temp. Heat Index Dew Point Humidity Pressure Visibility Wind Dir Wind Speed Gust Speed Precip Events Conditions
12:56 AM 70.0 °F - 67.3 °F 91% 30.04 in 10.0 mi Calm Calm - N/A   Partly Cloudy
1:32 AM 69.8 °F - 68.0 °F 94% 30.04 in 10.0 mi Calm Calm - N/A Rain Light Rain
1:42 AM 71.6 °F - 68.0 °F 88% 30.04 in 10.0 mi Calm Calm - N/A   Overcast
1:56 AM 71.1 °F - 68.0 °F 90% 30.03 in 10.0 mi Calm Calm - 0.00 in   Mostly Cloudy
2:03 AM 69.8 °F - 68.0 °F 94% 30.03 in 10.0 mi Calm Calm - N/A Rain Light Rain
2:13 AM 69.8 °F - 68.0 °F 94% 30.02 in 10.0 mi Calm Calm - N/A   Scattered Clouds
2:56 AM 69.4 °F - 67.6 °F 94% 30.01 in 10.0 mi Calm Calm - 0.00 in   Clear
3:56 AM 70.2 °F - 68.5 °F 95% 30.00 in 10.0 mi Calm Calm - N/A   Mostly Cloudy
4:56 AM 69.6 °F - 68.0 °F 95% 29.97 in 10.0 mi Calm Calm - N/A   Scattered Clouds
5:56 AM 69.3 °F - 68.0 °F 96% 29.96 in 7.0 mi Calm Calm - N/A   Scattered Clouds
6:41 AM 69.8 °F - 68.0 °F 94% 29.97 in 7.0 mi Calm Calm - N/A   Mostly Cloudy
6:56 AM 69.3 °F - 68.0 °F 96% 29.97 in 8.0 mi Calm Calm - N/A   Mostly Cloudy
7:44 AM 71.6 °F - 69.8 °F 94% 29.97 in 10.0 mi Calm Calm - N/A   Mostly Cloudy
7:56 AM 71.8 °F - 68.9 °F 91% 29.98 in 10.0 mi Calm Calm - N/A   Overcast
8:39 AM 73.4 °F - 68.0 °F 83% 29.98 in 9.0 mi Calm Calm - N/A Rain Light Rain Showers
8:44 AM 73.4 °F - 68.0 °F 83% 29.98 in 10.0 mi Calm Calm - N/A   Overcast
8:55 AM 72.0 °F - 68.9 °F 90% 29.98 in 10.0 mi Calm Calm - 0.02 in   Mostly Cloudy
9:06 AM 71.6 °F - 69.8 °F 94% 29.98 in 10.0 mi Calm Calm - N/A   Mostly Cloudy
9:56 AM 75.0 °F - 69.8 °F 84% 29.97 in 10.0 mi SE 4.6 mph - N/A   Overcast
10:38 AM 75.2 °F - 69.8 °F 83% 29.97 in 10.0 mi Calm Calm - N/A   Mostly Cloudy
10:56 AM 77.9 °F - 70.0 °F 76% 29.97 in 10.0 mi SE 4.6 mph - 0.00 in   Mostly Cloudy
12:56 PM 82.8 °F 86.9 °F 70.2 °F 66% 29.92 in 10.0 mi SE 3.5 mph - N/A   Scattered Clouds
1:56 PM 84.7 °F 89.7 °F 70.7 °F 63% 29.91 in 10.0 mi SSW 6.9 mph - N/A   Mostly Cloudy
2:56 PM 86.9 °F 91.3 °F 69.3 °F 56% 29.90 in 10.0 mi SW 4.6 mph - N/A   Mostly Cloudy
3:56 PM 89.6 °F 95.7 °F 70.7 °F 54% 29.88 in 10.0 mi South 8.1 mph - N/A   Mostly Cloudy
4:32 PM 86.0 °F 90.4 °F 69.8 °F 58% 29.88 in 10.0 mi SW 5.8 mph - N/A Rain Light Rain
4:54 PM 84.2 °F 89.6 °F 71.6 °F 66% 29.88 in 10.0 mi SW 6.9 mph - N/A Rain , Thunderstorm Light Thunderstorms and Rain
4:56 PM 83.1 °F 88.9 °F 73.0 °F 71% 29.89 in 10.0 mi WSW 6.9 mph - 0.00 in Rain , Thunderstorm Light Thunderstorms and Rain
4:59 PM 82.4 °F 89.5 °F 75.2 °F 79% 29.89 in 1.0 mi SW 19.6 mph 27.6 mph N/A Rain , Thunderstorm Heavy Thunderstorms and Rain
5:13 PM 77.0 °F - 73.4 °F 89% 29.88 in 10.0 mi North 4.6 mph - N/A   Mostly Cloudy
5:56 PM 79.0 °F - 74.3 °F 85% 29.88 in 10.0 mi Calm Calm - 0.19 in   Mostly Cloudy
6:56 PM 76.5 °F - 73.6 °F 91% 29.86 in 10.0 mi Calm Calm - N/A   Mostly Cloudy
7:56 PM 75.6 °F - 72.3 °F 90% 29.87 in 10.0 mi Calm Calm - N/A   Mostly Cloudy
8:56 PM 72.5 °F - 71.2 °F 96% 29.88 in 10.0 mi Calm Calm - N/A   Mostly Cloudy
9:56 PM 73.0 °F - 71.4 °F 95% 29.91 in 10.0 mi Calm Calm - N/A   Overcast
10:28 PM 77.0 °F - 69.8 °F 78% 29.91 in 10.0 mi West 5.8 mph - N/A Rain Light Rain
10:29 PM 77.0 °F - 71.6 °F 83% 29.91 in 9.0 mi West 4.6 mph - N/A Rain Heavy Rain
10:49 PM 75.2 °F - 71.6 °F 89% 29.90 in 10.0 mi Calm Calm - N/A   Overcast
10:56 PM 74.8 °F - 71.1 °F 88% 29.90 in 10.0 mi Calm Calm - 0.06 in   Overcast
11:56 PM 73.6 °F - 70.7 °F 91% 29.90 in 10.0 mi Calm Calm - 0.01 in   Mostly Cloudy